Stations météo

Publicité
Cap Corse, France (7785): Température de l'air & dewpoint: 16.07.2019 17:00:00 - 22.07.2019 17:00:00 (CEST)Cap Corse, France (7785): Vitesse du vent & gusts: 16.07.2019 17:00:00 - 22.07.2019 17:00:00 (CEST)Cap Corse, France (7785): Direction du vent: 16.07.2019 17:00:00 - 22.07.2019 17:00:00 (CEST)Cap Corse, France (7785): reduced air pressure: 16.07.2019 17:00:00 - 22.07.2019 17:00:00 (CEST)Cap Corse, France (7785): visibility: 16.07.2019 17:00:00 - 22.07.2019 17:00:00 (CEST)Cap Corse, France (7785): Quantités de précipitations: 16.07.2019 17:00:00 - 22.07.2019 17:00:00 (CEST)
Date & Time tt [°C] td [°C] ff [km/h] ff [knt] fx [km/h] fx [knt] dd ppp [hPa] vv [km] rr [mm]
22.07.2019 17:00:00 27,4 20,7 5 3 12 7 ENE 1020,7 18 0,0
22.07.2019 16:00:00 27,8 20,4 9 5 18 10 E 1021,1 - 0,0
22.07.2019 15:00:00 27,8 22,3 11 6 17 9 E 1021,5 - 0,0
22.07.2019 14:00:00 27,9 22,2 10 6 17 9 ENE 1021,8 18 0,0
22.07.2019 13:00:00 27,5 22,4 10 6 19 10 E 1022,0 - 0,0
22.07.2019 12:00:00 27,3 22,9 13 7 19 11 E 1022,0 - 0,0
22.07.2019 11:00:00 27,3 23,3 13 7 19 10 ENE 1022,2 - 0,0
22.07.2019 10:00:00 26,1 23,0 13 7 18 10 ENE 1022,1 - 0,0
22.07.2019 09:00:00 25,4 22,9 9 5 15 8 ENE 1021,8 - 0,0
22.07.2019 08:00:00 25,8 22,3 9 5 16 8 E 1021,7 18 0,0
22.07.2019 07:00:00 24,5 19,3 7 4 19 10 E 1021,4 - 0,0
22.07.2019 06:00:00 22,8 16,6 12 7 21 12 E 1021,3 - 0,0
22.07.2019 05:00:00 22,7 16,5 14 7 18 10 E 1020,9 15 0,0
22.07.2019 04:00:00 22,7 17,4 3 2 11 6 NNE 1021,3 - 0,0
22.07.2019 03:00:00 22,7 18,7 5 3 7 4 E 1021,5 - 0,0
22.07.2019 02:00:00 22,7 19,3 3 2 11 6 W 1021,8 - 0,0
22.07.2019 01:00:00 23,1 20,1 8 4 13 7 WSW 1022,1 - 0,0
22.07.2019 00:00:00 24,1 21,0 9 5 19 10 W 1022,0 - 0,0
21.07.2019 23:00:00 24,8 16,0 11 6 18 10 WSW 1021,6 - 0,0
21.07.2019 22:00:00 25,7 13,5 10 5 24 13 WSW 1021,3 - 0,0
21.07.2019 21:00:00 25,9 19,3 15 8 24 13 W 1020,7 - 0,0
21.07.2019 20:00:00 26,9 21,6 12 6 15 8 W 1020,3 18 0,0
21.07.2019 19:00:00 29,2 19,5 5 3 13 7 W 1020,1 - 0,0
21.07.2019 18:00:00 28,4 20,9 10 5 16 9 ENE 1019,9 - 0,0
21.07.2019 17:00:00 28,9 20,4 10 5 18 10 E 1020,3 15 0,0
21.07.2019 16:00:00 28,8 22,3 10 5 25 13 ENE 1020,5 - 0,0
21.07.2019 15:00:00 28,6 22,1 18 10 29 16 ENE 1020,4 - 0,0
21.07.2019 14:00:00 27,1 22,7 17 9 24 13 E 1020,8 15 0,0
21.07.2019 13:00:00 27,1 23,1 8 4 14 8 ENE 1021,3 - 0,0
21.07.2019 12:00:00 27,4 23,2 14 7 27 14 W 1021,0 - 0,0
21.07.2019 11:00:00 27,1 22,9 19 11 27 14 W 1020,7 15 0,0
21.07.2019 10:00:00 27,5 22,7 8 4 17 9 W 1020,8 - 0,0
21.07.2019 09:00:00 26,4 22,7 5 3 19 10 ENE 1020,7 - 0,0
21.07.2019 08:00:00 25,9 22,4 8 4 21 11 W 1020,4 12 0,0
21.07.2019 07:00:00 24,5 22,2 4 2 8 4 N 1020,4 - 0,0
21.07.2019 06:00:00 23,2 20,3 5 3 17 9 NE 1020,1 - 0,0
21.07.2019 05:00:00 23,4 21,3 13 7 21 11 SW 1019,9 12 0,0
21.07.2019 04:00:00 23,0 20,9 4 2 10 5 W 1020,0 - 0,0
21.07.2019 03:00:00 23,0 20,7 4 2 8 5 WNW 1020,0 - 0,0
21.07.2019 02:00:00 23,4 20,7 5 3 13 7 W 1019,9 - 0,0
21.07.2019 01:00:00 23,7 20,6 9 5 14 8 W 1019,8 - 0,0
21.07.2019 00:00:00 23,9 20,2 10 5 12 7 W 1019,6 - 0,0
20.07.2019 23:00:00 23,8 20,9 7 4 11 6 WSW 1019,4 - 0,0
20.07.2019 22:00:00 24,5 21,4 8 4 15 8 W 1019,1 - 0,0
20.07.2019 21:00:00 25,2 21,5 9 5 14 8 W 1018,4 - 0,0
20.07.2019 20:00:00 27,2 21,2 5 3 10 6 W 1018,1 15 0,0
20.07.2019 19:00:00 27,1 20,9 2 1 11 6 ENE 1018,3 - 0,0
20.07.2019 18:00:00 28,1 21,6 7 4 15 8 W 1018,4 - 0,0
20.07.2019 17:00:00 28,2 21,2 11 6 16 9 W 1018,8 18 0,0
20.07.2019 16:00:00 28,2 20,7 9 5 16 9 W 1018,8 - 0,0
20.07.2019 15:00:00 27,5 22,0 9 5 16 9 NW 1019,0 - 0,0
20.07.2019 14:00:00 28,0 22,5 9 5 17 9 W 1018,9 - 0,0
20.07.2019 13:00:00 27,2 22,2 10 5 13 7 W 1018,9 - 0,0
20.07.2019 12:00:00 26,9 22,3 8 5 12 7 W 1018,8 - 0,0
20.07.2019 11:00:00 26,7 22,3 9 5 12 6 W 1018,6 12 0,0
20.07.2019 10:00:00 26,4 21,8 5 3 9 5 WNW 1018,1 - 0,0
20.07.2019 09:00:00 26,5 20,6 4 2 10 6 W 1017,8 - 0,0
20.07.2019 08:00:00 25,2 20,5 3 2 8 4 W 1017,4 12 0,0
20.07.2019 07:00:00 23,3 19,9 8 4 15 8 W 1017,0 - 0,0
20.07.2019 06:00:00 22,0 18,8 4 2 32 17 W 1017,1 - 0,0
20.07.2019 05:00:00 23,1 18,2 23 13 35 19 SSE 1016,9 12 0,0
20.07.2019 04:00:00 22,2 18,4 3 1 5 3 NE 1017,0 - 0,0
20.07.2019 03:00:00 22,2 18,8 0 0 6 3 N 1017,0 - 0,0
20.07.2019 02:00:00 22,6 18,4 5 3 8 4 E 1016,9 - 0,0
20.07.2019 01:00:00 22,6 17,9 0 0 7 4 N 1017,1 - 0,0
20.07.2019 00:00:00 23,2 18,3 6 3 10 6 ENE 1016,9 - 0,0
19.07.2019 23:00:00 23,6 18,3 7 4 23 12 SW 1016,7 - 0,0
19.07.2019 22:00:00 24,5 17,0 17 9 21 11 SE 1016,4 - 0,0
19.07.2019 21:00:00 24,1 16,9 5 3 8 5 ESE 1016,2 - 0,0
19.07.2019 20:00:00 26,3 19,9 5 3 8 5 NE 1015,9 15 0,0
19.07.2019 19:00:00 26,9 18,7 3 2 10 6 ENE 1015,7 - 0,0
19.07.2019 18:00:00 27,6 20,9 7 4 15 8 NE 1015,8 - 0,0
19.07.2019 17:00:00 28,0 20,8 9 5 22 12 ENE 1015,7 15 0,0
19.07.2019 16:00:00 28,0 21,3 14 8 29 16 ENE 1015,9 - 0,0
19.07.2019 15:00:00 27,0 21,3 22 12 34 18 E 1016,0 - 0,0
19.07.2019 14:00:00 27,2 21,2 24 13 37 20 E 1016,1 15 0,0
19.07.2019 13:00:00 26,7 20,8 24 13 40 22 E 1016,3 - 0,0
19.07.2019 12:00:00 26,4 21,4 26 14 41 22 E 1016,1 - 0,0
19.07.2019 11:00:00 25,9 21,6 20 11 30 16 E 1016,2 12 0,0
19.07.2019 10:00:00 25,9 21,1 10 5 16 9 NNW 1016,1 - 0,0
19.07.2019 09:00:00 25,2 20,5 3 2 13 7 WNW 1015,8 - 0,0
19.07.2019 08:00:00 24,7 19,3 6 3 19 10 SSW 1015,4 12 0,0
19.07.2019 07:00:00 22,9 20,6 9 5 18 10 SSW 1015,1 - 0,0
19.07.2019 06:00:00 22,4 20,1 8 4 18 10 SW 1015,0 - 0,0
19.07.2019 05:00:00 22,7 20,0 9 5 32 17 WSW 1014,8 12 0,0
19.07.2019 04:00:00 22,9 20,2 19 10 29 16 WSW 1014,7 - 0,0
19.07.2019 03:00:00 22,6 19,9 16 9 36 20 WSW 1014,7 - 0,0
19.07.2019 02:00:00 23,1 20,8 20 11 29 16 W 1014,7 - 0,0
19.07.2019 01:00:00 23,3 20,8 12 7 21 12 WSW 1014,6 - 0,0
19.07.2019 00:00:00 22,6 20,3 8 4 14 8 W 1014,3 - 0,0
18.07.2019 23:00:00 22,9 20,2 9 5 21 12 WNW 1014,0 - 0,0
18.07.2019 22:00:00 23,3 20,6 14 8 32 18 WNW 1013,8 - 0,0
18.07.2019 21:00:00 24,4 20,1 14 8 29 15 WSW 1012,7 - 0,0
18.07.2019 20:00:00 25,3 19,7 7 4 25 14 E 1012,4 15 0,0
18.07.2019 19:00:00 25,4 20,0 18 10 28 15 E 1012,0 - 0,0
18.07.2019 18:00:00 25,6 20,6 18 10 30 16 E 1011,8 - 0,0
18.07.2019 17:00:00 25,8 20,1 20 11 30 16 E 1012,1 15 0,0
18.07.2019 16:00:00 26,0 20,6 16 9 25 14 E 1012,4 - 0,0
18.07.2019 15:00:00 26,2 20,8 14 7 22 12 ENE 1012,6 - 0,0
18.07.2019 14:00:00 26,3 20,8 15 8 24 13 NE 1012,8 15 0,0
18.07.2019 13:00:00 25,1 20,6 16 9 24 13 NNE 1013,0 - 0,0
18.07.2019 12:00:00 25,5 20,7 12 7 19 10 N 1012,9 - 0,0
18.07.2019 11:00:00 25,5 20,5 11 6 19 10 NNW 1012,5 15 0,0
18.07.2019 10:00:00 24,9 20,8 14 8 23 13 WNW 1012,3 - 0,0
18.07.2019 09:00:00 25,0 20,5 11 6 24 13 WNW 1012,1 - 0,0
18.07.2019 08:00:00 24,0 19,5 16 8 21 11 WNW 1011,9 18 0,0
18.07.2019 07:00:00 23,3 18,4 14 7 17 9 WNW 1011,5 - 0,0
18.07.2019 06:00:00 21,4 13,3 8 5 12 6 WSW 1011,4 - 0,0
18.07.2019 05:00:00 21,1 13,0 5 3 6 4 E 1011,3 18 0,0
18.07.2019 04:00:00 21,6 15,2 6 3 11 6 W 1011,1 - 0,0
18.07.2019 03:00:00 21,9 15,0 8 4 24 13 ENE 1011,7 - 0,0
18.07.2019 02:00:00 23,1 14,6 12 6 45 24 SW 1011,9 - 0,0
18.07.2019 01:00:00 22,7 18,9 34 18 52 28 WSW 1012,0 - 0,0
18.07.2019 00:00:00 22,6 20,5 33 18 48 26 WSW 1012,4 - 0,0
17.07.2019 23:00:00 22,4 20,3 24 13 46 25 WSW 1012,5 - 0,0
17.07.2019 22:00:00 22,6 19,9 24 13 46 25 W 1012,4 - 0,0
17.07.2019 21:00:00 22,7 19,1 19 10 43 23 WSW 1012,0 - 0,0
17.07.2019 20:00:00 23,9 18,5 19 10 44 24 W 1011,9 30 0,0
17.07.2019 19:00:00 25,1 18,1 24 13 43 23 W 1012,4 - 0,0
17.07.2019 18:00:00 25,5 17,4 18 10 37 20 W 1012,7 - 0,0
17.07.2019 17:00:00 26,1 18,5 22 12 34 18 WSW 1013,3 15 0,0
17.07.2019 16:00:00 25,5 17,7 23 13 37 20 W 1013,5 - 0,0
17.07.2019 15:00:00 26,2 18,3 24 13 37 20 W 1013,6 - 0,0
17.07.2019 14:00:00 26,6 19,2 23 12 37 20 W 1013,5 15 0,0
17.07.2019 13:00:00 26,5 19,1 24 13 - - WSW 1013,8 - 0,0
17.07.2019 12:00:00 25,9 18,3 23 13 37 20 W 1014,1 - 0,0
17.07.2019 11:00:00 26,4 16,0 19 11 33 18 WSW 1014,1 15 0,0
17.07.2019 10:00:00 26,9 11,8 9 5 26 14 W 1014,2 - 0,0
17.07.2019 09:00:00 27,0 10,7 13 7 23 12 W 1014,1 - 0,0
17.07.2019 08:00:00 25,5 9,7 10 5 26 14 SW 1013,8 15 0,0
17.07.2019 07:00:00 23,6 9,6 20 11 30 16 SW 1013,8 - 0,0
17.07.2019 06:00:00 22,5 8,9 24 13 38 20 SW 1013,7 - 0,0
17.07.2019 05:00:00 22,7 9,5 28 15 50 27 SW 1013,5 15 0,0
17.07.2019 04:00:00 21,9 17,3 18 10 42 23 WSW 1013,6 - 0,0
17.07.2019 03:00:00 21,9 17,5 19 10 43 23 WSW 1014,1 - 0,0
17.07.2019 02:00:00 22,2 12,4 32 18 45 24 SW 1014,4 - 0,0
17.07.2019 01:00:00 22,3 17,2 21 11 43 23 WSW 1014,5 - 0,0
17.07.2019 00:00:00 22,3 17,7 17 9 45 24 WSW 1014,4 - 0,0
16.07.2019 23:00:00 22,6 17,9 28 15 45 25 WSW 1014,3 - 0,0
16.07.2019 22:00:00 22,8 17,9 21 12 33 18 WSW 1014,4 - 0,0
16.07.2019 21:00:00 23,4 16,2 20 11 27 15 WSW 1013,9 - 0,0
16.07.2019 20:00:00 24,6 15,2 18 10 30 16 W 1013,9 20 0,0
16.07.2019 19:00:00 25,5 16,4 15 8 23 12 W 1013,7 - 0,0
16.07.2019 18:00:00 26,0 16,3 11 6 17 9 W 1013,8 - 0,0
16.07.2019 17:00:00 26,4 16,6 10 6 20 11 W 1014,1 20 0,0

tt = Température de l'air
td = dewpoint
ff = Vitesse du vent
fx = gusts
dd = Direction du vent
ppp = reduced air pressure
vv = visibility
rr = Quantités de précipitations

stations d'obs. à proximité